Theta_e
356 363 363 363 363 364 364 365 364 362 360 360 361 361 360 360 361 362 363 363 363 361 359 361 360 358 357 356 356 356 356 355 354 355 355 354 354 353 352 351 350 345 350
360 362 363 363 363 363 364 364 363 363 363 362 361 360 360 360 362 362 363 363 362 358 357 359 359 357 355 355 355 355 355 354 354 355 356 356 355 354 354 352 349 346 351
360 362 360 362 362 362 363 362 362 362 362 361 360 360 360 361 362 362 362 362 362 357 355 355 356 355 355 355 354 354 354 354 353 354 354 350 347 353 353 355 355 350 350
360 361 359 362 362 362 361 361 360 361 361 360 360 360 361 361 362 361 361 361 360 358 355 354 354 354 354 354 354 353 353 353 353 352 356 357 355 349 351 355 354 352 351
360 361 361 362 361 361 361 360 360 360 360 360 360 360 361 362 362 361 361 361 359 358 357 355 354 353 354 353 353 353 354 353 353 354 356 357 355 350 354 355 356 355 353
358 359 362 361 361 361 360 360 359 359 359 360 360 360 361 361 361 361 361 360 360 357 357 355 353 353 353 352 351 351 353 352 352 352 354 351 349 348 352 358 356 357 356
356 359 359 361 361 360 360 359 358 358 358 359 359 360 360 360 360 360 360 360 359 357 355 353 352 351 352 351 352 352 350 350 352 350 349 350 347 347 351 356 361 358 358
356 358 358 360 360 359 359 358 358 357 357 358 358 358 359 358 359 359 359 358 357 355 354 352 351 351 352 353 353 351 350 350 348 348 346 343 346 346 347 352 359 360 359
358 357 358 356 359 359 358 357 357 356 356 356 357 357 357 357 358 358 357 357 356 355 354 352 351 351 352 352 352 352 351 351 348 344 340 340 346 345 349 353 355 358 359
358 357 356 356 352 353 355 358 357 356 356 356 357 357 356 357 357 357 355 357 355 355 355 353 352 352 353 352 352 351 350 349 341 339 341 344 346 348 351 355 355 356 358
355 355 355 353 353 351 350 355 357 357 357 357 357 357 354 351 352 352 352 355 355 355 354 353 353 352 352 351 351 349 347 345 343 342 343 347 347 349 353 356 356 357 357
350 351 355 355 353 352 350 354 353 352 350 349 351 354 353 355 353 349 352 353 353 353 352 352 351 351 349 344 344 346 346 347 347 347 347 348 348 351 353 356 357 358 358
350 351 353 354 355 351 348 352 350 351 352 353 354 356 356 353 353 351 350 349 351 351 347 348 348 347 345 347 347 348 349 349 349 347 348 348 350 352 353 358 358 358 357
348 349 351 353 353 353 352 350 350 349 350 349 351 354 353 350 351 351 347 347 350 348 349 349 349 350 349 348 348 349 350 348 347 349 350 349 350 350 352 353 356 356 356
348 349 350 351 353 354 353 350 349 349 349 350 350 352 350 348 348 348 348 346 347 350 352 352 353 352 351 350 349 349 347 349 351 351 350 348 347 349 351 351 350 350 349
349 349 349 351 354 353 352 353 351 350 350 351 350 350 350 348 348 345 346 345 346 349 353 353 352 351 349 349 347 347 350 352 352 350 346 347 344 342 343 343 343 343 343
349 351 350 353 355 354 353 353 352 350 349 349 349 351 350 349 349 347 343 343 347 352 351 352 353 352 349 350 350 350 350 351 348 344 343 342 341 338 336 336 334 335 336
349 349 351 352 353 354 353 352 352 351 349 348 349 351 350 349 348 347 346 347 351 352 353 352 350 349 348 348 347 348 347 347 348 343 340 337 335 333 332 330 331 330 332
349 349 349 351 351 352 349 348 352 352 349 349 350 350 351 348 346 345 347 349 355 351 352 351 349 347 344 344 342 344 344 347 343 339 335 332 330 327 326 326 327 326 328
349 349 349 349 349 348 346 350 350 349 349 349 349 349 351 350 347 345 346 351 354 353 351 351 346 344 340 337 338 339 341 341 341 338 332 329 327 326 325 326 325 324 324
348 347 347 346 347 345 348 345 346 345 347 347 348 350 350 348 348 349 351 352 353 347 344 343 344 340 338 336 337 333 339 340 339 334 332 326 324 323 323 323 323 324 324
344 344 345 348 350 349 347 348 347 346 346 348 349 351 352 353 352 349 346 346 345 340 337 334 334 337 335 332 331 332 325 328 335 330 330 324 323 321 320 321 323 324 324
343 343 344 347 346 348 348 348 350 351 349 345 345 346 342 339 340 346 338 335 336 335 331 330 331 333 331 330 326 327 320 316 317 325 322 320 322 320 320 321 323 323 324
343 346 346 346 345 347 348 348 350 345 338 339 339 337 337 338 336 337 335 333 333 332 329 328 328 330 325 324 321 323 322 320 313 309 315 318 319 319 321 321 322 323 324
344 344 345 346 347 348 349 351 342 336 335 334 333 331 331 330 335 329 328 325 327 327 325 323 321 321 319 318 318 319 319 322 321 313 308 311 317 319 320 320 322 322 323
343 343 344 345 346 350 349 344 340 335 333 330 330 328 327 325 324 323 322 323 324 324 322 320 320 319 318 319 319 319 317 316 313 313 310 312 312 317 320 320 320 321 322
Wind_Speed
14 19 21 21 21 19 19 22 21 21 21 21 20 19 19 20 19 18 16 14 13 12 13 13 12 11 11 11 11 10 10 10 10 10 9 8 7 6 5 5 5 4 6
18 19 20 21 22 20 20 21 21 20 20 20 20 19 18 18 18 17 16 14 12 13 12 12 12 11 11 11 11 10 10 9 9 9 8 7 5 5 5 5 4 1 4
20 20 20 21 20 20 20 21 22 21 20 19 20 19 18 18 16 16 15 13 12 12 12 11 11 11 11 10 10 9 9 8 7 7 6 2 1 2 2 5 6 5 6
19 18 19 21 20 19 20 21 21 21 20 20 20 19 18 17 16 15 14 13 13 12 11 10 10 10 9 9 8 8 7 6 5 4 3 0 2 3 6 6 7 8 9
19 18 18 22 21 20 19 21 20 20 20 20 20 20 18 17 16 14 13 13 13 12 11 10 9 9 8 8 7 6 6 4 2 4 1 2 3 3 8 11 10 11 12
20 18 21 21 21 20 19 19 20 20 20 20 20 19 18 17 15 13 12 11 11 11 10 9 8 7 7 7 6 5 3 1 4 2 1 1 5 3 7 12 15 13 12
21 18 19 20 20 20 20 20 20 20 20 20 20 18 17 15 14 12 11 10 10 9 8 8 7 6 7 7 6 4 3 2 6 4 5 5 6 4 7 9 14 14 14
20 18 18 18 19 19 19 19 20 20 20 19 19 17 15 14 13 12 11 10 9 9 9 9 8 8 7 6 5 4 3 5 6 6 6 6 4 9 11 10 10 13 14
19 19 16 16 17 19 18 18 19 19 19 18 18 16 15 13 12 11 11 9 8 8 7 7 7 5 5 4 5 5 6 6 9 5 7 5 4 10 12 10 11 12 13
17 17 17 15 15 15 15 16 16 17 17 17 16 15 14 13 12 10 9 8 8 8 7 6 5 5 5 6 5 6 7 8 8 6 5 4 8 12 12 11 11 11 13
15 15 16 16 15 14 14 14 14 15 15 14 13 13 11 9 10 11 6 8 7 6 5 4 4 4 5 7 7 7 8 4 5 4 5 5 10 12 13 12 12 13 14
19 18 16 16 15 15 12 14 13 12 11 11 11 12 8 8 7 6 6 6 5 5 4 4 5 6 7 4 3 4 3 5 5 5 5 9 12 12 12 10 11 12 13
19 12 15 15 15 16 13 10 7 7 8 8 11 10 8 6 6 5 4 5 4 5 4 5 5 4 4 4 4 5 6 6 4 4 5 9 11 14 14 12 12 11 10
22 17 15 16 14 14 10 10 10 8 8 8 9 10 7 5 6 5 4 4 4 3 3 4 2 3 5 5 6 6 6 5 4 4 5 9 11 12 13 13 12 12 12
22 21 16 15 15 13 13 9 9 9 8 9 8 9 7 7 6 5 4 4 3 3 3 3 2 3 4 5 5 5 5 5 6 5 5 9 13 12 12 13 13 14 14
20 21 17 17 16 14 12 11 9 8 8 8 8 8 9 7 6 6 5 4 4 3 2 3 3 4 4 4 5 4 5 5 6 6 5 4 12 15 15 15 15 15 15
17 19 16 18 16 14 13 10 8 7 7 8 8 10 10 8 7 5 5 4 3 2 3 3 3 2 2 2 4 4 5 6 4 4 5 5 5 11 15 17 16 16 16
17 19 18 15 16 15 12 9 7 8 8 8 7 7 9 9 8 7 5 4 1 2 1 3 3 1 1 2 4 5 4 3 1 3 5 6 6 7 7 16 15 15 15
20 19 19 18 18 16 9 8 9 10 8 7 6 6 8 8 8 5 4 2 4 5 4 3 3 2 1 5 6 5 3 1 0 4 6 6 9 9 8 11 11 12 14
18 17 17 14 14 11 7 9 8 7 7 5 5 5 7 6 6 5 3 1 5 5 5 4 5 4 6 4 6 3 3 3 2 3 4 5 7 9 9 10 8 8 11
18 15 16 15 14 12 11 10 8 8 6 5 4 5 5 4 5 5 4 6 5 6 6 5 3 3 3 4 6 3 2 5 2 2 2 5 8 9 10 9 7 7 7
18 16 15 16 16 13 9 7 4 7 5 4 5 6 7 8 9 8 7 6 5 5 7 7 6 3 0 5 3 1 2 4 4 2 3 5 10 9 9 9 9 7 8
19 19 18 15 15 13 10 8 7 8 8 5 6 6 10 12 9 10 11 5 3 7 6 3 2 3 3 3 7 3 2 2 5 2 5 7 11 9 9 8 8 7 9
21 19 16 15 14 12 13 10 10 6 6 4 7 8 8 10 9 9 7 6 4 4 4 3 1 2 2 1 1 4 5 3 3 5 6 11 11 10 11 8 8 9 10
17 15 14 14 14 13 13 11 10 12 9 7 8 11 10 9 10 8 10 9 5 2 4 4 4 4 2 2 2 1 3 2 2 3 7 11 8 7 7 7 7 8 9
14 14 14 15 14 15 15 15 16 16 13 10 9 9 6 6 7 10 7 7 2 3 4 5 4 5 3 4 3 4 3 2 3 3 6 10 10 7 6 4 5 6 8
Wind_Direction
161 153 151 139 130 132 131 127 129 133 133 136 140 141 136 132 135 134 131 129 130 129 129 127 124 120 117 116 113 112 115 120 124 125 127 133 142 148 153 158 166 175 161
155 156 151 137 134 136 133 129 128 129 131 135 136 135 134 133 136 137 135 132 132 130 132 132 131 128 125 125 125 126 129 134 133 134 140 151 162 179 189 189 209 66 206
155 154 150 138 136 137 134 133 131 131 132 134 134 135 135 134 137 139 135 133 133 136 137 139 137 136 135 134 133 133 135 140 140 143 151 151 124 205 251 233 244 244 239
150 153 151 139 138 138 139 133 133 133 134 134 135 137 137 137 140 140 136 137 142 146 146 143 140 139 136 135 136 136 138 141 145 151 181 46 323 175 242 240 244 237 240
152 154 149 141 142 143 143 136 136 136 136 137 139 140 140 141 143 143 142 143 147 151 152 148 144 142 143 143 140 140 141 140 140 214 340 340 316 51 244 232 231 230 233
151 155 146 143 144 145 142 140 139 140 141 142 142 143 143 146 145 144 144 145 150 153 156 150 143 143 144 142 136 132 127 131 237 233 268 252 275 337 258 232 229 234 233
148 155 150 144 145 145 145 145 144 144 145 145 143 145 146 146 142 142 143 147 149 152 150 145 144 143 145 144 148 163 186 229 256 249 259 256 267 276 290 246 231 233 232
146 151 148 145 147 146 148 150 148 149 147 145 144 147 147 146 144 144 146 149 150 153 158 156 156 161 161 162 167 201 239 272 248 270 270 277 305 292 295 289 256 244 244
148 148 152 154 152 149 152 153 152 151 148 147 148 149 148 148 146 147 146 149 148 150 153 157 163 161 173 188 213 233 252 267 284 290 298 292 351 308 304 299 295 275 257
153 152 156 157 160 160 157 153 153 150 149 149 150 151 151 149 145 149 143 147 154 156 156 155 166 183 212 233 248 266 281 283 274 285 275 295 311 310 308 296 285 273 264
160 161 162 161 164 163 161 157 151 151 147 149 152 151 149 161 162 159 133 148 158 157 162 175 197 229 256 263 279 287 297 298 307 301 300 354 301 305 309 297 285 277 269
168 168 168 168 165 164 165 160 157 158 163 167 170 168 170 159 162 165 157 162 163 179 193 211 231 247 252 273 265 253 286 301 298 304 303 331 315 317 312 305 296 287 283
166 163 172 170 170 171 165 163 163 163 164 171 174 172 167 165 165 174 161 173 181 190 212 209 220 244 293 310 314 316 318 313 307 312 334 324 330 335 336 336 334 324 314
170 169 169 175 173 175 167 172 167 168 171 173 177 173 171 174 176 177 183 181 194 202 224 237 264 302 306 304 303 313 321 322 329 322 324 345 341 345 344 339 345 348 355
173 172 171 173 178 177 173 170 173 176 177 176 174 177 180 185 183 185 190 200 211 213 229 258 307 328 311 309 316 320 327 329 324 324 321 24 12 13 20 12 10 8 4
176 171 170 177 179 178 178 173 172 180 174 180 177 178 183 188 184 190 197 207 216 228 263 304 302 318 346 336 328 323 312 329 340 349 352 25 40 34 31 23 19 15 10
180 166 169 178 178 179 180 177 182 185 183 187 185 181 184 189 188 197 205 216 220 246 261 278 309 314 308 313 313 317 339 346 342 18 15 20 33 52 29 25 24 18 15
180 175 167 179 179 179 177 178 189 188 194 193 189 185 188 190 190 192 193 201 223 251 343 67 120 176 301 348 348 321 347 308 21 32 42 28 25 17 17 17 10 9 8
182 179 173 178 181 181 173 177 192 190 195 193 190 192 194 202 201 207 201 160 97 100 107 99 90 11 46 24 325 299 308 223 327 72 51 41 36 19 360 358 357 5 2
185 182 177 177 179 173 173 185 189 184 185 183 192 198 195 206 199 204 203 168 130 114 97 65 51 26 39 342 289 301 266 161 101 80 53 30 25 11 5 354 338 349 356
180 176 176 171 174 175 182 183 186 182 175 176 188 192 192 180 174 172 130 120 123 93 82 73 74 62 18 333 275 224 159 186 166 51 32 11 9 360 354 349 347 346 347
173 179 176 185 182 187 181 177 170 158 162 154 149 133 126 105 94 81 82 60 53 82 72 47 42 30 121 311 281 279 264 209 219 345 8 356 4 347 346 351 351 359 350
181 184 183 179 178 179 162 149 120 118 122 93 91 92 95 94 80 89 102 64 82 49 54 35 12 269 222 247 30 334 295 309 328 17 348 342 342 343 343 348 357 355 352
192 190 180 171 167 160 158 150 144 139 112 90 99 93 84 88 87 77 17 121 40 69 113 103 6 254 243 157 103 55 43 1 342 315 333 330 338 343 352 351 358 355 353
183 177 165 159 155 153 154 142 110 103 100 95 97 93 82 73 79 68 85 18 31 12 91 92 75 75 52 80 83 117 77 103 61 317 319 327 336 354 341 349 353 352 351
169 155 145 142 143 139 124 120 117 118 118 115 117 108 108 96 89 68 37 54 7 78 90 78 83 82 89 99 110 80 68 21 21 335 330 325 323 344 348 6 357 0 348